Cloud_Cover
99 100 100 100 100 85 44 35 32 14 4 46 44 4 0 0 0 0 0 0 0 0 0 0 0 0 0 0 0 0 0 0 0 3 41 100 100 6 9 0 0 0 0
99 46 5 8 8 5 4 0 0 0 0 0 0 0 0 3 0 0 0 0 0 0 2 5 0 0 0 0 0 0 0 0 0 0 0 2 11 7 7 1 0 5 22
5 6 2 2 3 5 5 1 2 3 7 4 3 4 0 0 0 0 0 0 0 0 5 5 13 5 0 4 0 0 0 0 0 0 0 0 4 9 0 0 12 75 17
0 1 1 1 3 5 12 46 6 5 5 10 5 0 0 0 0 0 0 0 0 0 11 6 16 5 5 4 0 0 0 0 0 0 0 0 7 5 0 2 0 2 5
5 4 3 5 14 2 0 0 0 0 0 0 0 0 0 0 0 0 0 0 0 0 0 3 9 3 1 5 1 0 0 0 0 0 0 1 0 3 10 1 0 5 27
5 28 8 3 2 0 0 0 0 0 0 0 0 0 0 0 0 0 0 0 0 0 0 0 2 5 5 5 5 4 0 0 0 0 2 2 0 8 3 0 5 92 30
2 0 0 0 0 0 0 0 0 0 0 0 0 0 0 0 0 0 0 0 0 0 0 0 0 0 4 5 5 5 5 3 0 0 0 4 0 13 19 0 0 4 5
0 0 0 0 0 2 0 0 0 0 0 0 0 0 0 0 0 0 0 0 0 0 0 0 0 0 0 1 5 5 5 5 2 0 2 3 5 2 2 0 0 0 36
0 12 18 11 0 0 0 3 22 17 22 1 0 0 0 0 0 0 0 0 0 0 0 0 0 0 0 0 0 0 1 0 0 1 0 0 0 0 4 0 3 4 0
73 34 76 94 78 21 6 12 26 37 49 48 18 5 13 8 0 0 0 0 0 0 0 0 0 0 0 0 0 0 0 0 0 2 1 10 0 0 0 0 6 0 7
100 91 100 100 100 100 61 29 7 16 35 43 99 82 99 29 9 5 5 5 3 2 0 0 1 0 0 0 0 0 0 1 3 18 22 1 0 0 0 92 11 2 3
100 100 35 18 99 62 100 100 78 32 20 100 99 100 100 100 99 74 8 5 5 5 7 44 47 5 5 25 28 9 16 0 5 14 21 0 0 0 77 100 4 5 5
100 100 100 51 39 97 92 98 100 100 97 47 91 98 100 100 100 100 99 47 29 17 62 49 25 39 97 96 56 32 12 0 12 25 0 0 0 0 100 100 3 5 5
80 16 78 96 74 77 100 90 82 100 86 100 100 100 100 100 100 100 99 100 100 63 100 96 58 39 37 23 86 52 6 4 8 24 4 1 0 0 100 100 92 68 5
2 4 5 6 83 44 38 4 47 95 100 100 100 100 100 100 91 99 100 86 73 92 100 100 82 47 38 100 88 9 77 75 48 20 18 0 4 4 32 100 100 90 30
1 4 5 2 7 5 6 3 0 0 4 8 99 53 66 100 100 100 66 89 83 100 100 93 92 59 34 92 5 11 96 100 100 87 5 1 4 0 4 5 99 100 100
5 5 5 5 0 6 9 6 4 0 0 0 2 49 93 65 100 100 100 100 100 100 100 84 88 52 100 100 11 28 100 100 100 99 6 5 1 5 2 0 9 64 99
5 5 5 5 2 4 7 59 98 44 3 1 1 5 29 1 80 100 100 100 100 100 100 100 84 100 100 71 9 6 97 100 100 99 7 56 45 4 5 5 5 5 5
5 5 5 5 5 5 5 5 11 88 100 39 4 5 2 2 0 34 100 100 100 100 100 100 100 100 100 100 97 85 93 99 100 100 20 10 66 59 46 92 8 5 5
5 5 7 59 89 64 25 14 11 5 6 7 27 5 1 0 0 0 20 100 98 100 100 100 100 100 100 100 100 100 100 100 100 100 100 100 5 85 14 98 100 54 38
30 17 36 88 76 12 36 31 7 5 5 5 5 5 0 0 5 27 36 19 100 99 100 100 100 100 100 100 100 100 100 100 100 100 100 100 100 46 41 100 99 78 82
2 3 3 2 0 4 41 60 18 17 31 65 36 45 26 10 18 29 27 96 100 100 96 61 100 100 100 99 100 100 100 100 100 100 100 100 100 99 97 53 90 14 33
0 5 5 3 5 2 5 56 86 58 96 100 100 100 90 100 94 100 52 100 100 100 100 100 79 96 100 100 100 100 100 100 100 100 100 100 100 100 100 100 99 100 84
5 5 1 1 0 0 0 5 5 9 69 88 97 88 48 17 37 80 67 99 100 100 100 98 67 86 99 100 100 100 100 100 100 100 100 100 100 100 100 100 100 100 100
0 0 2 4 5 0 0 5 5 5 8 57 79 100 100 100 100 100 100 100 100 87 100 100 100 100 75 100 100 100 100 100 100 100 100 100 100 100 100 100 100 100 100
0 0 0 0 0 0 3 5 5 5 49 21 96 100 100 100 100 100 100 100 100 100 100 100 100 100 100 82 100 100 100 100 100 100 100 100 100 100 100 100 100 100 100